Weather History for KTTF - May, 2013

Change the Weather History Date:

Friday, May 24, 2013

  Actual Average Record
Temperature  
Mean Temperature 50 °F -  
Max Temperature 57 °F 72 °F 91 °F (1964)
Min Temperature 42 °F 52 °F 33 °F (2005)
Degree Days  
Heating Degree Days 16    
Moisture  
Dew Point 38 °F    
Average Humidity 67    
Maximum Humidity 93    
Minimum Humidity 44    
Precipitation  
Precipitation 0.00 in - - ()
Sea Level Pressure  
Sea Level Pressure 30.27 in    
Wind  
Wind Speed 7 mph (NNW)    
Max Wind Speed 15 mph    
Max Gust Speed 21 mph    
Visibility 10 miles    
Events      
Averages and records for this station are not official NWS values.
T = Trace of Precipitation, MM = Missing Value Source: NWS Daily Summary

Daily Weather History Graph

Daily Weather History Graph

Search for Another Location

Airport or City:

Trip Planner

Search our weather history database for the weather conditions in past years. The results will help you decide how hot, cold, wet, or windy it might be!

Date:

Astronomy

May. 24, 2013 Rise Set
Actual Time 6:05 AM EDT 8:56 PM EDT
Civil Twilight 5:32 AM EDT 9:29 PM EDT
Nautical Twilight 4:51 AM EDT 10:10 PM EDT
Astronomical Twilight 4:03 AM EDT 10:59 PM EDT
Moon 8:36 PM EDT (5/24) 5:37 AM EDT (5/24)
Length of Visible Light 15h 56m
Length of Day
14h 50m
Full, 100% of the Moon is Illuminated
May 24
Full
May 25
Full
May 31
Last Quarter
Jun 8
New
Jun 16
First Quarter

Hourly Weather History & Observations

Time (EDT) Temp. Windchill Dew Point Humidity Pressure Visibility Wind Dir Wind Speed Gust Speed Precip Events Conditions
12:14 AM 46.4 °F 43.5 °F 39.2 °F 76% 30.13 in 10.0 mi NNW 5.8 mph - N/A   Scattered Clouds
12:34 AM 44.6 °F 41.4 °F 39.2 °F 81% 30.14 in 10.0 mi NNW 5.8 mph - N/A   Clear
12:54 AM 44.6 °F 41.4 °F 39.2 °F 81% 30.14 in 10.0 mi NNW 5.8 mph - N/A   Clear
1:16 AM 44.6 °F 40.7 °F 39.2 °F 81% 30.14 in 10.0 mi NNW 6.9 mph - N/A   Clear
1:36 AM 44.6 °F 40.7 °F 39.2 °F 81% 30.15 in 10.0 mi NNW 6.9 mph - N/A   Clear
1:51 AM 44.6 °F 40.7 °F 39.2 °F 81% 30.15 in 10.0 mi NNW 6.9 mph - N/A   Clear
2:11 AM 42.8 °F 39.3 °F 39.2 °F 87% 30.15 in 10.0 mi NW 5.8 mph - N/A   Clear
2:34 AM 44.6 °F 41.4 °F 41.0 °F 87% 30.15 in 10.0 mi NNW 5.8 mph - N/A   Clear
2:54 AM 42.8 °F 38.6 °F 41.0 °F 93% 30.15 in 10.0 mi NNW 6.9 mph - N/A   Clear
3:14 AM 42.8 °F 40.1 °F 41.0 °F 93% 30.15 in 10.0 mi NW 4.6 mph - N/A   Clear
3:34 AM 42.8 °F 40.1 °F 41.0 °F 93% 30.16 in 10.0 mi NW 4.6 mph - N/A   Scattered Clouds
3:54 AM 42.8 °F 39.3 °F 41.0 °F 93% 30.17 in 10.0 mi NNW 5.8 mph - N/A   Mostly Cloudy
4:14 AM 44.6 °F 42.2 °F 41.0 °F 87% 30.18 in 10.0 mi North 4.6 mph - N/A   Overcast
4:34 AM 44.6 °F 42.2 °F 39.2 °F 81% 30.18 in 10.0 mi NE 4.6 mph - N/A   Overcast
4:55 AM 44.6 °F 40.7 °F 37.4 °F 76% 30.19 in 10.0 mi North 6.9 mph - N/A   Overcast
5:15 AM 44.6 °F 40.7 °F 37.4 °F 76% 30.20 in 10.0 mi NNE 6.9 mph - N/A   Overcast
5:35 AM 44.6 °F 40.7 °F 37.4 °F 76% 30.21 in 10.0 mi NNE 6.9 mph - N/A   Overcast
5:55 AM 42.8 °F 40.1 °F 37.4 °F 81% 30.22 in 10.0 mi NNE 4.6 mph - N/A   Overcast
6:15 AM 42.8 °F 40.1 °F 37.4 °F 81% 30.22 in 10.0 mi NNE 4.6 mph - N/A   Mostly Cloudy
6:35 AM 42.8 °F - 37.4 °F 81% 30.23 in 10.0 mi Calm Calm - N/A   Mostly Cloudy
6:55 AM 42.8 °F 38.6 °F 37.4 °F 81% 30.24 in 10.0 mi North 6.9 mph - N/A   Scattered Clouds
7:15 AM 42.8 °F 36.6 °F 35.6 °F 76% 30.24 in 10.0 mi North 11.5 mph 18.4 mph N/A   Clear
7:35 AM 42.8 °F 35.8 °F 35.6 °F 76% 30.25 in 10.0 mi North 13.8 mph 20.7 mph N/A   Scattered Clouds
7:55 AM 42.8 °F 36.2 °F 35.6 °F 76% 30.26 in 10.0 mi NNE 12.7 mph 19.6 mph N/A   Mostly Cloudy
8:16 AM 44.6 °F 38.4 °F 35.6 °F 71% 30.27 in 10.0 mi North 12.7 mph 18.4 mph N/A   Overcast
8:36 AM 44.6 °F 38.8 °F 35.6 °F 71% 30.28 in 10.0 mi North 11.5 mph - N/A   Overcast
8:56 AM 42.8 °F 35.8 °F 33.8 °F 70% 30.29 in 10.0 mi North 13.8 mph 18.4 mph N/A   Scattered Clouds
9:16 AM 44.6 °F 38.1 °F 35.6 °F 71% 30.30 in 10.0 mi North 13.8 mph 18.4 mph N/A   Scattered Clouds
9:36 AM 46.4 °F 41.1 °F 35.6 °F 66% 30.30 in 10.0 mi NNE 11.5 mph 18.4 mph N/A   Scattered Clouds
9:56 AM 46.4 °F 41.5 °F 35.6 °F 66% 30.31 in 10.0 mi NNW 10.4 mph 17.3 mph N/A   Mostly Cloudy
10:11 AM 44.6 °F 39.7 °F 35.6 °F 71% 30.31 in 10.0 mi NNW 9.2 mph - N/A   Mostly Cloudy
10:31 AM 46.4 °F 40.7 °F 35.6 °F 66% 30.31 in 10.0 mi NW 12.7 mph - N/A   Mostly Cloudy
10:52 AM 48.2 °F - 35.6 °F 62% 30.31 in 10.0 mi North 11.5 mph 17.3 mph N/A   Scattered Clouds
11:12 AM 48.2 °F - 35.6 °F 62% 30.31 in 10.0 mi NNE 12.7 mph 16.1 mph N/A   Scattered Clouds
11:32 AM 48.2 °F - 35.6 °F 62% 30.32 in 10.0 mi NW 11.5 mph 16.1 mph N/A   Overcast
11:52 AM 50.0 °F - 37.4 °F 62% 30.33 in 10.0 mi North 8.1 mph - N/A   Mostly Cloudy
12:12 PM 51.8 °F - 35.6 °F 54% 30.33 in 10.0 mi NNW 6.9 mph 18.4 mph N/A   Mostly Cloudy
12:32 PM 51.8 °F - 37.4 °F 58% 30.33 in 10.0 mi North 12.7 mph 19.6 mph N/A   Mostly Cloudy
12:52 PM 50.0 °F - 37.4 °F 62% 30.33 in 10.0 mi NNW 12.7 mph 16.1 mph N/A   Mostly Cloudy
1:12 PM 53.6 °F - 37.4 °F 54% 30.33 in 10.0 mi North 12.7 mph 18.4 mph N/A   Scattered Clouds
1:32 PM 53.6 °F - 37.4 °F 54% 30.33 in 10.0 mi NNW 9.2 mph 16.1 mph N/A   Mostly Cloudy
1:52 PM 53.6 °F - 37.4 °F 54% 30.33 in 10.0 mi North 6.9 mph 18.4 mph N/A   Scattered Clouds
2:13 PM 53.6 °F - 37.4 °F 54% 30.32 in 10.0 mi NW 9.2 mph 17.3 mph N/A   Scattered Clouds
2:33 PM 55.4 °F - 39.2 °F 54% 30.31 in 10.0 mi North 15.0 mph 19.6 mph N/A   Scattered Clouds
2:53 PM 55.4 °F - 37.4 °F 51% 30.32 in 10.0 mi North 12.7 mph 18.4 mph N/A   Clear
3:13 PM 55.4 °F - 37.4 °F 51% 30.32 in 10.0 mi NNW 10.4 mph - N/A   Clear
3:33 PM 55.4 °F - 39.2 °F 54% 30.32 in 10.0 mi North 11.5 mph - N/A   Scattered Clouds
3:53 PM 55.4 °F - 37.4 °F 51% 30.32 in 10.0 mi NNW 12.7 mph - N/A   Scattered Clouds
4:13 PM 57.2 °F - 37.4 °F 48% 30.32 in 10.0 mi NW 10.4 mph 19.6 mph N/A   Clear
4:33 PM 57.2 °F - 37.4 °F 48% 30.32 in 10.0 mi North 10.4 mph - N/A   Scattered Clouds
4:53 PM 57.2 °F - 37.4 °F 48% 30.32 in 10.0 mi NNW 10.4 mph - N/A   Clear
5:14 PM 57.2 °F - 37.4 °F 48% 30.31 in 10.0 mi NNW 8.1 mph 16.1 mph N/A   Clear
5:34 PM 57.2 °F - 37.4 °F 48% 30.31 in 10.0 mi North 13.8 mph 17.3 mph N/A   Clear
5:54 PM 57.2 °F - 35.6 °F 44% 30.31 in 10.0 mi NNW 8.1 mph - N/A   Clear
6:14 PM 57.2 °F - 37.4 °F 48% 30.30 in 10.0 mi NNW 10.4 mph 16.1 mph N/A   Clear
6:34 PM 57.2 °F - 35.6 °F 44% 30.31 in 10.0 mi North 9.2 mph - N/A   Clear
6:54 PM 57.2 °F - 35.6 °F 44% 30.30 in 10.0 mi NNW 10.4 mph - N/A   Clear
7:14 PM 57.2 °F - 35.6 °F 44% 30.30 in 10.0 mi North 8.1 mph - N/A   Clear
7:34 PM 55.4 °F - 35.6 °F 47% 30.29 in 10.0 mi NNW 9.2 mph - N/A   Clear
7:54 PM 55.4 °F - 35.6 °F 47% 30.29 in 10.0 mi NNW 9.2 mph - N/A   Clear
8:14 PM 55.4 °F - 35.6 °F 47% 30.29 in 10.0 mi North 5.8 mph - N/A   Clear
8:34 PM 53.6 °F - 37.4 °F 54% 30.29 in 10.0 mi North 3.5 mph - N/A   Clear
8:55 PM 51.8 °F - 37.4 °F 58% 30.29 in 10.0 mi Calm Calm - N/A   Clear
9:15 PM 51.8 °F - 37.4 °F 58% 30.29 in 10.0 mi Calm Calm - N/A   Clear
9:35 PM 46.4 °F - 37.4 °F 71% 30.29 in 10.0 mi Calm Calm - N/A   Clear
9:55 PM 46.4 °F - 39.2 °F 76% 30.29 in 10.0 mi Calm Calm - N/A   Clear
10:15 PM 46.4 °F - 37.4 °F 71% 30.30 in 10.0 mi Calm Calm - N/A   Clear
10:35 PM 46.4 °F - 41.0 °F 81% 30.31 in 10.0 mi Calm Calm - N/A   Clear
10:55 PM 46.4 °F - 41.0 °F 81% 30.32 in 10.0 mi Calm Calm - N/A   Clear
11:15 PM 46.4 °F - 39.2 °F 76% 30.33 in 10.0 mi Calm Calm - N/A   Clear
11:35 PM 42.8 °F - 39.2 °F 87% 30.33 in 10.0 mi Calm Calm - N/A   Clear
11:56 PM 44.6 °F - 39.2 °F 81% 30.32 in 10.0 mi Calm Calm - N/A   Clear